Location: *
(32.8667°N, 13.1833°E)
Time: 07:03:54
(UTC+00:00)

Cosmos 1356 Rocket - Pass Details

Date: 18 July 2019
Orbit: 544 x 598 km, 81.2° (Epoch: 21 August)

Event Time Altitude Azimuth Distance (km) Brightness Sun altitude
Rises 20:40:23 0° 356° (N) 2,839 7.8 -24.9°
Reaches altitude 10° 20:42:38 10° 360° (N) 1,938 6.7 -25.2°
Enters shadow 20:45:53 46° 27° (NNE) 803 4.2 -25.7°
